Terminal Aerodrome Forecast
Issued by NWS

Home | Current Version | Previous Version | Text Only | Print | Product List | Glossary On
Versions: 1 2 3 4 5 6 7 8 9 10 11 12 13 14 15 16 17 18 19 20 21 22 23 24 25 26 27
000
FTAK31 PAFA 110540
TAFAFA
TAF
PAFA 110540Z 1106/1212 05004KT P6SM BKN100 OVC180
     FM112000 20008KT P6SM VCSH BKN070 OVC120
     FM120600 20003KT P6SM BKN100=

USA.gov is the U.S. government's official web portal to all federal, state and local government web resources and services.